Date String (YYYY-MM-DD hh:mm:ss) UTC,Instrument flags,Ambient pressure (hPa),Sample flow (lpm),Bypass flow (lpm),Sample temperature (°C),Ambient temperature (°C),ASC tube jacket temperature (°C),LED temperature (°C),Box temperature (°C),Sample RH (%),Span deviation,Mass concentration (μg/m³),Mass concentration (μg/m³),Mass concentration (μg/m³)
DateTimeUTC,F1_M11,P_M11,Q1_M11,Q2_M11,T1_M11,T2_M11,T3_M11,T4_M11,T5_M11,U1_M11,ZSPAN_M11,X0_M11,X2_M11,X1_M11
2021-09-14 19:00:00,,0829.3,5.01,0.00,29.8,26.8,00.0,39.0,31.3,29.4,-000.3,0017.10,0009.26,0008.12
2021-09-14 19:01:00,,0829.2,4.99,0.00,29.8,27.2,00.0,39.0,31.4,29.3,-000.7,0016.55,0009.16,0008.07
2021-09-14 19:02:00,,0829.2,5.00,0.00,29.8,27.7,00.0,39.0,31.5,29.2,-000.4,0015.94,0009.17,0008.07
2021-09-14 19:03:00,,0829.2,4.99,0.00,29.8,28.0,00.0,39.0,31.6,29.2,-000.4,0016.13,0009.23,0008.11
2021-09-14 19:04:00,,0829.2,5.00,0.00,29.9,28.4,00.0,39.0,31.7,29.4,-000.7,0017.13,0009.26,0008.07
2021-09-14 19:05:00,,0829.3,5.01,0.00,29.9,28.6,00.0,39.0,31.7,29.1,-000.6,0017.11,0009.26,0008.02
2021-09-14 19:06:00,,0829.3,4.99,0.00,29.9,28.8,00.0,39.0,31.8,28.8,-000.3,0017.21,0009.28,0007.99
2021-09-14 19:07:00,,0829.3,5.00,0.00,30.0,29.0,00.0,39.0,31.9,28.8,-000.2,0017.10,0009.25,0007.96
2021-09-14 19:08:00,,0829.2,5.01,0.00,30.0,29.1,00.0,39.0,31.9,28.5,0000.1,0017.11,0009.23,0007.93
2021-09-14 19:09:00,,0829.2,5.00,0.00,30.1,29.3,00.0,39.0,32.0,28.6,-000.3,0016.18,0009.12,0007.90
2021-09-14 19:10:00,,0829.2,5.00,0.00,30.1,29.3,00.0,39.1,32.0,28.4,-000.1,0015.72,0009.12,0007.88
2021-09-14 19:11:00,,0829.2,5.00,0.00,30.1,28.0,00.0,39.1,31.7,28.6,-000.3,0016.28,0009.17,0007.85
2021-09-14 19:12:00,,0829.2,5.00,0.00,30.0,26.4,00.0,39.1,31.2,28.7,-000.1,0016.88,0009.15,0007.82
2021-09-14 19:13:00,,0829.3,4.99,0.00,29.8,26.2,00.0,39.0,31.1,29.0,-000.1,0017.13,0009.06,0007.78
2021-09-14 19:14:00,,0829.2,5.00,0.00,29.8,26.5,00.0,39.0,31.2,29.1,-000.1,0016.73,0008.98,0007.74
2021-09-14 19:15:00,,0829.3,5.02,0.00,29.7,27.0,00.0,38.9,31.3,29.4,0000.3,0015.81,0008.87,0007.69
2021-09-14 19:16:00,,0829.2,4.99,0.00,29.7,27.5,00.0,38.9,31.4,29.5,0000.4,0016.02,0008.77,0007.63
2021-09-14 19:17:00,,0829.2,5.00,0.00,29.8,27.9,00.0,38.9,31.5,29.1,0000.1,0016.09,0008.69,0007.57
2021-09-14 19:18:00,,0829.2,4.99,0.00,29.8,28.2,00.0,38.9,31.6,29.0,0000.0,0016.22,0008.64,0007.56
2021-09-14 19:19:00,,0829.2,5.01,0.00,29.8,28.5,00.0,38.9,31.7,28.9,-000.1,0016.43,0008.61,0007.53
2021-09-14 19:20:00,,0829.2,4.99,0.00,29.9,28.7,00.0,38.9,31.8,28.9,0000.2,0017.01,0008.66,0007.55
2021-09-14 19:21:00,,0829.2,5.00,0.00,29.9,28.9,00.0,38.9,31.8,29.0,0000.2,0017.14,0008.65,0007.53
2021-09-14 19:22:00,,0829.3,5.00,0.00,30.0,29.1,00.0,38.9,31.9,28.5,0000.2,0016.91,0008.59,0007.53
2021-09-14 19:23:00,,0829.2,5.00,0.00,30.0,29.2,00.0,39.0,32.0,28.4,-000.0,0016.40,0008.58,0007.53
2021-09-14 19:24:00,,0829.2,5.00,0.00,30.1,28.6,00.0,39.0,31.8,28.2,-000.1,0016.06,0008.55,0007.48
2021-09-14 19:25:00,,0829.2,4.99,0.00,29.9,26.8,00.0,39.0,31.3,29.0,0000.1,0016.14,0008.51,0007.43
2021-09-14 19:26:00,,0829.1,4.99,0.00,29.8,26.2,00.0,39.0,31.1,29.7,-000.0,0016.83,0008.48,0007.41
2021-09-14 19:27:00,,0829.0,5.00,0.00,29.7,26.5,00.0,38.9,31.2,29.8,-000.0,0016.78,0008.50,0007.41
2021-09-14 19:28:00,,0829.1,5.02,0.00,29.7,26.9,00.0,38.9,31.3,29.6,0000.0,0017.10,0008.53,0007.41
2021-09-14 19:29:00,,0829.0,5.00,0.00,29.7,27.4,00.0,38.9,31.4,29.0,0000.1,0017.53,0008.58,0007.41
2021-09-14 19:30:00,,0829.0,4.99,0.00,29.7,27.8,00.0,38.8,31.5,28.7,-000.0,0017.35,0008.54,0007.41
2021-09-14 19:31:00,,0829.0,5.01,0.00,29.7,28.1,00.0,38.8,31.6,28.6,-000.2,0018.19,0008.53,0007.38
2021-09-14 19:32:00,,0829.0,4.99,0.00,29.8,28.4,00.0,38.8,31.6,28.3,-000.3,0019.19,0008.55,0007.38
2021-09-14 19:33:00,,0829.0,5.00,0.00,29.8,28.7,00.0,38.8,31.7,28.3,-000.3,0019.31,0008.51,0007.35
2021-09-14 19:34:00,,0829.0,5.00,0.00,29.9,28.9,00.0,38.9,31.7,29.0,0000.1,0019.71,0008.52,0007.31
2021-09-14 19:35:00,,0829.0,5.01,0.00,29.9,29.0,00.0,38.9,31.9,29.2,0000.2,0019.67,0008.56,0007.34
2021-09-14 19:36:00,,0829.0,5.01,0.00,30.0,29.2,00.0,38.9,31.9,29.2,0000.2,0019.69,0008.57,0007.35
2021-09-14 19:37:00,,0829.0,5.01,0.00,30.0,29.0,00.0,38.9,31.9,29.0,0000.2,0018.95,0008.63,0007.38
2021-09-14 19:38:00,,0828.9,4.99,0.00,30.0,27.3,00.0,38.9,31.4,29.5,0000.1,0018.90,0008.65,0007.40
2021-09-14 19:39:00,,0829.0,4.99,0.00,29.8,26.1,00.0,38.9,31.1,29.5,0000.1,0018.63,0008.67,0007.41
2021-09-14 19:40:00,,0828.9,5.01,0.00,29.7,26.2,00.0,38.9,31.1,29.9,-000.1,0018.54,0008.67,0007.39
2021-09-14 19:41:00,,0828.9,5.01,0.00,29.6,26.7,00.0,38.8,31.1,30.2,-000.1,0018.47,0008.69,0007.38
2021-09-14 19:42:00,,0828.9,5.00,0.00,29.6,27.1,00.0,38.8,31.2,30.3,-000.1,0018.47,0008.71,0007.41
2021-09-14 19:43:00,,0828.8,4.98,0.00,29.6,27.6,00.0,38.8,31.3,30.4,0000.0,0018.21,0008.77,0007.46
2021-09-14 19:44:00,,0828.9,5.00,0.00,29.7,28.0,00.0,38.8,31.4,30.3,0000.2,0018.28,0008.86,0007.50
2021-09-14 19:45:00,,0829.0,5.01,0.00,29.7,28.3,00.0,38.8,31.5,29.9,-000.1,0017.92,0008.91,0007.54
2021-09-14 19:46:00,,0828.9,5.00,0.00,29.7,28.5,00.0,38.8,31.6,29.5,-000.2,0018.45,0008.91,0007.55
2021-09-14 19:47:00,,0829.1,4.99,0.00,29.8,28.7,00.0,38.8,31.7,29.6,0000.0,0018.43,0008.96,0007.58
2021-09-14 19:48:00,,0829.0,5.00,0.00,29.9,28.9,00.0,38.8,31.8,29.4,0000.2,0018.69,0008.96,0007.62
2021-09-14 19:49:00,,0829.2,5.01,0.00,29.9,29.1,00.0,38.9,31.9,29.3,0000.3,0018.76,0008.97,0007.67
2021-09-14 19:50:00,,0828.8,4.99,0.00,30.0,29.2,00.0,38.9,31.9,29.1,0000.3,0018.67,0008.92,0007.70
2021-09-14 19:51:00,,0828.7,4.99,0.00,30.0,29.3,00.0,38.9,31.9,29.1,0000.5,0018.85,0008.93,0007.71
2021-09-14 19:52:00,,0828.7,5.00,0.00,30.0,28.1,00.0,38.9,31.7,29.0,0000.8,0018.67,0008.96,0007.74
2021-09-14 19:53:00,,0829.1,5.00,0.00,29.8,26.5,00.0,38.9,31.1,29.2,0000.6,0017.51,0009.00,0007.74
2021-09-14 19:54:00,,0829.1,5.02,0.00,29.7,26.1,00.0,38.9,31.1,29.4,0000.2,0017.04,0008.98,0007.73
2021-09-14 19:55:00,,0828.9,5.00,0.00,29.7,26.5,00.0,38.9,31.2,29.3,-000.0,0017.55,0008.98,0007.76
2021-09-14 19:56:00,,0828.6,5.00,0.00,29.6,27.0,00.0,38.8,31.3,29.7,0000.0,0017.51,0009.01,0007.82
2021-09-14 19:57:00,,0829.0,5.00,0.00,29.6,27.4,00.0,38.8,31.4,29.8,0000.2,0016.96,0009.09,0007.88
2021-09-14 19:58:00,,0828.7,4.99,0.00,29.7,27.8,00.0,38.8,31.4,29.7,0000.2,0017.12,0009.12,0007.91
2021-09-14 19:59:00,,0829.2,5.00,0.00,29.7,28.1,00.0,38.8,31.5,29.6,0000.2,0018.64,0009.20,0007.97
